SCP
0 0 0 0 0 0 0 0 0 0 0 0 0 0 0 0 0 0 0 0 0 0 0 0 0 0 0 0 0 0 0 0 0 0 0 1 2 3 4 3 3 3 3 2
0 0 0 0 0 0 0 0 0 0 0 0 0 0 0 0 0 0 0 0 0 0 0 0 0 0 2 1 1 0 0 0 0 1 3 2 3 3 3 2 2 2 2 2
0 0 0 0 0 0 0 0 0 0 0 0 0 0 0 0 0 0 0 0 0 0 0 -0 -0 0 1 2 2 2 1 1 2 2 3 3 3 2 2 2 2 2 1 2
0 0 0 0 0 0 0 0 0 0 0 0 0 0 0 0 0 0 0 0 0 0 0 -0 -0 0 1 1 1 1 5 2 1 2 2 1 2 3 2 2 2 1 1 1
0 -0 0 0 0 -0 0 0 0 0 0 0 0 0 0 0 0 0 0 0 0 0 0 0 0 0 1 1 1 1 0 1 1 2 2 1 2 1 2 2 2 1 1 1
0 -0 -0 0 0 0 0 0 0 0 0 0 0 0 0 0 0 0 0 0 0 0 0 0 0 1 1 1 0 0 0 2 1 1 0 1 1 1 1 2 2 1 1 1
-0 -0 0 -0 0 0 0 0 0 0 0 0 -0 0 0 0 0 0 0 0 0 0 0 0 0 1 2 1 0 0 1 0 1 1 1 1 1 1 1 1 1 1 1 1
0 -0 -0 0 0 -0 0 0 0 0 0 0 0 0 0 0 0 0 0 0 0 0 0 0 0 0 2 2 2 1 1 1 1 1 1 1 1 1 1 1 1 1 1 0
-0 0 -0 0 0 -0 0 0 0 0 0 0 0 0 0 -0 0 0 0 0 0 0 0 0 0 0 3 3 2 1 0 1 1 1 1 1 1 1 0 0 0 0 0 0
-0 -0 0 0 0 0 0 0 0 0 0 0 0 0 0 -0 0 0 0 0 0 0 0 0 1 4 4 4 3 1 1 1 0 0 0 0 0 0 0 0 0 0 0 0
-0 -0 -0 0 -0 -0 0 0 0 0 0 0 0 0 0 -0 0 0 1 0 0 2 4 3 3 4 4 3 2 1 1 0 0 0 0 0 0 0 0 0 0 0 0 0
-0 -0 -0 0 0 0 0 0 0 0 0 0 0 0 0 1 1 1 2 2 2 2 2 2 2 2 2 1 0 0 0 0 0 0 0 0 0 0 0 0 0 0 0 0
0 -0 0 0 -0 0 0 0 0 0 0 0 0 0 0 1 2 2 1 3 2 1 1 1 2 2 1 0 0 0 0 0 0 0 0 0 0 0 0 0 0 0 0 0
0 -0 -0 0 0 0 0 0 0 0 0 0 0 0 0 1 1 2 2 2 2 2 1 0 0 0 0 0 0 0 0 0 0 0 0 0 0 0 0 0 0 0 0 0
0 -0 -0 -0 -0 0 0 0 0 -0 -0 0 0 0 0 0 1 2 2 1 0 0 0 0 0 0 0 0 0 0 0 0 0 0 0 0 0 0 0 0 0 0 0 0
0 0 -0 -0 -0 -0 -0 0 0 0 0 -0 0 0 0 0 1 1 0 0 0 0 0 0 0 0 0 0 0 0 0 0 0 0 0 0 0 0 0 0 0 0 0 0
0 0 0 0 -0 0 0 0 0 0 -0 0 0 0 0 0 0 0 0 0 0 0 0 0 0 0 0 0 0 0 0 0 0 0 0 0 0 0 0 0 0 0 0 0
0 0 0 0 0 0 0 0 0 -0 -0 0 0 0 0 0 0 0 0 0 0 0 0 0 0 0 0 0 0 0 0 0 0 0 0 0 0 0 0 0 0 0 0 0
0 0 0 0 0 0 0 0 0 0 0 0 0 0 0 0 0 0 0 0 0 0 0 0 0 0 0 0 0 0 0 0 0 0 0 0 0 0 0 0 0 0 0 0
0 0 0 0 0 0 0 -0 0 0 0 -0 -0 -0 0 0 0 0 0 0 0 0 0 0 0 0 0 0 0 0 0 0 0 0 0 0 0 0 0 0 0 0 0 0
0 0 -0 0 0 0 0 -0 -0 0 0 -0 -0 0 0 0 0 0 0 0 0 0 0 0 0 0 0 0 0 0 0 0 0 0 0 0 0 0 0 0 0 0 0 0
0 0 0 0 0 0 0 0 0 0 0 0 -0 0 0 0 0 0 0 0 0 0 0 0 0 0 0 0 0 0 0 0 0 0 0 0 0 0 0 0 0 0 0 0
0 0 0 0 0 0 -0 -0 -0 -0 -0 0 0 0 0 0 0 0 0 0 0 0 0 0 0 0 0 0 0 0 0 0 0 0 0 0 0 0 0 0 0 0 0 0
0 0 0 0 0 0 -0 -0 -0 -0 -0 0 -0 0 0 0 0 0 0 0 0 0 0 0 0 0 0 0 0 0 0 0 0 0 0 0 0 0 0 0 0 0 0 0
0 0 0 0 0 0 0 -0 -0 -0 -0 -0 0 0 0 0 0 0 0 0 0 0 0 0 0 0 0 0 0 0 0 0 0 0 0 0 0 0 0 0 0 0 0 0
0 0 0 0 0 0 0 0 -0 -0 0 -0 -0 0 0 0 0 0 0 0 0 0 0 0 0 0 0 -0 0 0 0 0 0 0 0 0 0 0 0 0 0 0 0 0
Wind_Speed_500mb
30 25 28 40 40 39 40 39 34 32 32 46 42 35 22 35 44 31 51 61 58 59 62 54 58 55 40 49 48 44 71 55 47 88 76 65 58 43 45 37 35 33 38 33
22 34 33 30 34 43 43 44 39 26 49 38 43 38 31 21 36 52 44 64 70 71 71 64 66 66 53 53 54 55 52 60 72 72 74 63 58 54 46 37 32 34 33 34
22 38 40 38 43 47 42 40 37 31 27 41 18 40 23 38 35 48 61 52 79 83 83 80 67 77 66 57 62 61 60 52 63 58 70 65 55 47 48 43 29 30 28 27
30 28 34 43 44 40 34 35 40 40 33 25 33 22 24 37 41 22 42 47 69 75 79 78 68 63 63 61 61 54 56 55 42 49 51 56 60 60 47 42 44 32 28 24
12 16 24 33 39 43 35 35 35 43 35 22 38 23 31 31 31 39 23 38 59 52 77 79 74 58 57 61 62 60 41 33 42 51 51 53 50 44 36 35 33 28 22 21
24 27 26 29 29 38 30 39 36 32 33 25 37 20 35 29 52 23 16 48 63 68 59 72 76 57 61 60 55 44 53 62 52 52 47 45 41 39 37 38 36 25 20 19
8 33 36 24 18 27 19 15 18 14 25 18 30 20 21 19 28 37 37 48 69 73 70 61 69 69 64 63 53 49 59 59 45 36 41 34 36 32 31 37 34 25 19 18
7 7 17 37 39 13 17 15 7 14 11 29 23 14 19 19 24 46 48 61 75 67 68 46 69 76 67 71 74 56 51 42 35 29 38 35 25 33 37 33 29 27 19 15
9 7 22 20 15 31 11 18 20 11 13 13 12 18 9 23 15 6 33 61 71 71 63 53 72 75 73 83 67 59 54 44 39 45 36 32 37 36 38 42 36 25 19 13
9 11 13 17 1 16 18 9 9 8 17 10 15 38 13 13 15 23 15 44 69 77 59 59 82 69 78 80 68 60 58 57 51 49 38 40 39 38 38 38 31 26 19 11
13 7 2 9 13 20 15 25 22 6 8 13 14 18 27 6 24 28 24 46 58 62 68 78 87 85 88 79 73 69 61 57 49 48 44 44 42 38 32 29 24 19 16 11
5 6 11 17 13 2 3 12 20 8 21 2 3 4 26 8 31 43 33 69 80 87 84 80 96 91 83 71 69 73 67 56 52 52 50 44 35 24 24 21 18 15 9 5
2 2 10 10 6 7 7 12 17 14 9 15 4 2 23 23 29 44 60 63 79 85 84 79 82 82 85 83 79 74 68 62 55 46 37 27 29 29 25 19 12 7 2 3
15 6 11 10 15 8 15 18 24 23 8 10 4 5 12 15 33 39 57 70 74 78 83 82 78 82 80 82 80 73 62 53 46 37 38 39 35 28 22 17 11 6 1 4
3 9 21 33 35 29 20 18 21 26 28 10 12 8 13 7 24 46 69 77 79 78 81 81 80 77 81 79 73 66 56 48 46 47 42 37 31 25 18 12 6 3 7 10
7 7 9 27 34 28 15 27 25 3 23 16 13 2 22 7 41 57 72 81 79 77 76 77 78 81 83 80 73 64 56 51 48 45 42 34 28 19 11 5 5 8 12 12
7 5 4 8 25 18 8 26 23 17 16 11 7 10 23 26 31 51 76 81 81 79 76 76 78 80 77 72 68 68 60 51 44 39 32 24 18 13 9 9 10 15 19 18
8 4 4 8 16 4 13 27 23 32 24 5 12 27 32 43 59 65 73 89 82 80 80 83 85 79 72 65 63 59 52 47 42 36 29 21 16 13 12 14 17 22 26 27
14 1 7 2 4 16 27 16 20 40 14 21 27 42 53 80 91 58 68 84 80 86 82 85 78 72 66 61 57 56 50 45 41 32 24 19 17 17 18 22 23 21 22 24
15 10 5 9 6 9 8 34 58 33 11 27 33 42 54 77 35 18 58 83 85 87 85 84 75 68 62 54 50 50 45 41 40 30 27 23 20 20 24 25 23 24 25 24
8 5 4 5 7 9 14 46 47 9 14 38 47 32 55 40 35 66 69 78 84 79 77 74 67 64 57 49 47 49 42 39 32 28 24 25 24 24 22 20 21 20 24 24
7 11 6 4 6 8 6 20 8 28 60 62 62 75 83 85 73 77 72 75 74 73 69 63 63 56 48 43 40 42 40 32 29 27 28 25 25 24 22 20 20 21 21 21
7 12 7 11 5 14 43 45 65 75 82 70 74 68 100 84 77 75 73 74 70 70 67 61 59 53 45 38 33 40 39 36 34 30 33 31 27 28 27 26 24 21 21 21
19 25 8 11 21 36 58 69 73 78 73 75 80 70 81 85 73 74 70 69 67 63 62 59 55 51 46 37 34 36 39 33 30 34 32 30 32 31 31 27 27 25 27 30
8 22 19 10 20 47 48 69 81 81 86 88 82 84 80 79 68 68 66 63 64 62 56 53 52 49 45 37 32 31 34 34 38 36 30 30 32 33 34 33 29 31 32 37
21 12 8 8 23 41 31 57 83 83 81 93 100 94 76 62 64 64 66 65 61 61 56 55 54 50 40 43 45 38 31 35 40 40 33 31 31 32 31 32 35 40 39 40
Wind_Direction_500mb
238 248 227 223 234 246 241 249 235 240 212 224 241 224 205 206 233 240 215 217 214 220 235 239 233 228 247 208 211 209 188 167 198 201 201 182 191 186 194 206 211 220 231 234
283 253 239 242 257 251 248 245 253 238 242 213 231 234 215 190 216 230 231 205 211 214 221 233 236 234 238 213 208 197 183 189 202 199 201 198 195 192 198 199 210 221 226 237
209 258 233 233 239 250 242 236 246 248 253 237 217 227 229 213 210 213 222 203 208 211 214 226 237 229 228 200 186 185 186 195 185 187 197 200 198 199 206 210 212 228 229 231
213 224 245 231 229 234 237 251 246 255 249 249 218 228 222 219 205 207 211 212 209 206 213 225 230 215 200 183 190 195 193 195 196 195 197 199 199 206 210 208 214 209 198 213
253 289 306 268 243 218 242 240 247 244 251 252 262 235 222 203 196 207 200 205 208 209 215 220 228 223 201 186 187 183 193 207 209 197 203 196 201 203 193 197 192 188 209 227
288 264 245 268 301 272 241 229 245 249 239 246 247 243 223 187 195 182 204 213 213 208 209 215 218 213 190 188 198 195 196 216 210 203 190 198 190 194 188 182 187 195 216 223
286 243 241 250 283 268 249 255 216 215 230 222 234 243 249 207 184 188 205 200 201 198 210 211 207 183 174 177 179 175 184 192 196 196 193 188 196 197 193 188 189 197 207 221
240 1 194 190 213 210 257 229 185 173 186 219 215 206 227 202 195 201 203 197 188 189 198 191 187 177 164 162 160 176 184 177 178 178 172 185 179 168 170 169 186 194 212 221
319 355 313 292 235 192 266 246 241 164 187 217 172 244 219 263 165 337 219 181 176 176 186 170 177 178 168 156 163 176 164 158 160 162 170 159 160 175 167 168 180 186 203 207
317 300 215 280 71 161 199 273 239 235 184 184 195 215 224 210 87 34 13 168 165 171 171 180 172 159 153 157 162 157 155 158 163 171 172 167 175 184 177 175 178 192 193 187
339 298 285 311 200 181 164 234 240 184 152 205 183 213 208 251 119 85 47 85 125 131 120 126 125 130 147 152 155 148 149 150 161 171 170 174 180 182 177 184 178 181 196 211
91 272 270 243 293 243 127 275 196 217 218 234 80 252 337 240 120 103 81 92 98 107 111 113 120 128 141 139 138 139 148 152 158 161 168 169 171 174 168 163 153 156 176 215
316 326 306 307 119 193 210 202 211 195 338 205 149 320 347 92 107 105 110 103 106 107 106 107 110 116 123 131 135 138 143 146 146 148 154 156 150 141 134 134 135 133 117 12
149 230 248 262 289 302 298 232 183 182 117 220 273 56 12 87 118 111 105 106 106 106 108 107 108 110 114 121 128 129 128 134 134 138 138 135 130 128 126 119 117 111 50 346
91 247 238 263 261 249 247 273 226 214 186 157 222 214 153 149 133 120 112 108 105 106 106 110 111 111 111 113 118 120 119 123 127 126 124 116 111 110 115 122 113 359 342 331
187 269 288 277 243 247 240 249 183 296 164 136 227 210 136 171 136 112 110 108 105 107 109 109 107 111 113 115 116 115 111 108 112 110 107 113 119 120 111 70 360 331 331 328
207 258 285 277 164 181 246 179 175 122 105 97 25 186 142 123 104 112 111 107 108 107 104 101 103 109 114 113 113 109 111 114 114 114 115 113 110 107 80 46 19 5 2 8
199 213 242 274 139 106 343 139 123 114 104 179 136 144 116 100 94 94 107 108 106 103 101 104 109 110 111 114 113 117 120 119 117 113 113 108 99 82 59 46 49 48 34 35
175 354 286 283 11 140 40 89 110 118 100 139 110 106 110 99 86 75 98 101 103 102 107 110 111 112 113 112 117 119 119 118 114 109 105 97 91 88 76 67 59 44 37 52
151 227 285 345 41 77 218 115 119 111 77 115 115 126 123 112 94 96 100 102 102 105 111 113 113 114 114 117 123 119 116 117 114 111 98 90 86 79 69 62 58 51 51 65
334 350 51 339 82 93 247 162 182 85 145 129 109 91 104 97 110 116 103 100 110 114 115 117 120 115 117 125 127 120 119 109 115 124 104 88 77 73 67 56 54 54 58 69
341 328 31 322 68 151 204 219 304 126 121 113 109 113 104 109 110 105 104 103 109 114 117 120 120 120 123 128 127 120 112 116 112 112 111 95 74 69 64 56 67 61 67 69
18 3 310 14 359 45 67 91 116 123 119 119 114 116 113 109 106 106 108 110 111 116 118 121 120 122 124 125 119 114 108 105 103 101 87 78 70 66 66 65 67 67 70 71
342 8 13 350 13 88 84 88 96 106 111 114 114 114 110 112 111 112 112 110 111 111 113 115 114 111 109 110 110 109 112 111 112 100 87 73 65 60 57 63 65 64 62 60
326 314 318 2 24 76 82 105 111 111 117 109 105 110 108 110 113 115 115 114 112 113 114 112 107 101 96 95 100 106 107 106 102 100 89 69 56 62 57 53 53 62 60 59
339 340 358 9 9 84 90 112 121 116 115 123 125 115 110 113 114 112 109 115 117 114 112 110 107 102 91 82 77 79 89 107 109 100 86 63 52 58 62 65 66 67 72 74
Wind_Speed_850mb
30 25 28 40 40 39 40 39 34 32 32 46 42 35 22 35 44 31 51 61 58 59 62 54 58 55 40 49 48 44 71 55 47 88 76 65 58 43 45 37 35 33 38 33
22 34 33 30 34 43 43 44 39 26 49 38 43 38 31 21 36 52 44 64 70 71 71 64 66 66 53 53 54 55 52 60 72 72 74 63 58 54 46 37 32 34 33 34
22 38 40 38 43 47 42 40 37 31 27 41 18 40 23 38 35 48 61 52 79 83 83 80 67 77 66 57 62 61 60 52 63 58 70 65 55 47 48 43 29 30 28 27
30 28 34 43 44 40 34 35 40 40 33 25 33 22 24 37 41 22 42 47 69 75 79 78 68 63 63 61 61 54 56 55 42 49 51 56 60 60 47 42 44 32 28 24
12 16 24 33 39 43 35 35 35 43 35 22 38 23 31 31 31 39 23 38 59 52 77 79 74 58 57 61 62 60 41 33 42 51 51 53 50 44 36 35 33 28 22 21
24 27 26 29 29 38 30 39 36 32 33 25 37 20 35 29 52 23 16 48 63 68 59 72 76 57 61 60 55 44 53 62 52 52 47 45 41 39 37 38 36 25 20 19
8 33 36 24 18 27 19 15 18 14 25 18 30 20 21 19 28 37 37 48 69 73 70 61 69 69 64 63 53 49 59 59 45 36 41 34 36 32 31 37 34 25 19 18
7 7 17 37 39 13 17 15 7 14 11 29 23 14 19 19 24 46 48 61 75 67 68 46 69 76 67 71 74 56 51 42 35 29 38 35 25 33 37 33 29 27 19 15
9 7 22 20 15 31 11 18 20 11 13 13 12 18 9 23 15 6 33 61 71 71 63 53 72 75 73 83 67 59 54 44 39 45 36 32 37 36 38 42 36 25 19 13
9 11 13 17 1 16 18 9 9 8 17 10 15 38 13 13 15 23 15 44 69 77 59 59 82 69 78 80 68 60 58 57 51 49 38 40 39 38 38 38 31 26 19 11
13 7 2 9 13 20 15 25 22 6 8 13 14 18 27 6 24 28 24 46 58 62 68 78 87 85 88 79 73 69 61 57 49 48 44 44 42 38 32 29 24 19 16 11
5 6 11 17 13 2 3 12 20 8 21 2 3 4 26 8 31 43 33 69 80 87 84 80 96 91 83 71 69 73 67 56 52 52 50 44 35 24 24 21 18 15 9 5
2 2 10 10 6 7 7 12 17 14 9 15 4 2 23 23 29 44 60 63 79 85 84 79 82 82 85 83 79 74 68 62 55 46 37 27 29 29 25 19 12 7 2 3
15 6 11 10 15 8 15 18 24 23 8 10 4 5 12 15 33 39 57 70 74 78 83 82 78 82 80 82 80 73 62 53 46 37 38 39 35 28 22 17 11 6 1 4
3 9 21 33 35 29 20 18 21 26 28 10 12 8 13 7 24 46 69 77 79 78 81 81 80 77 81 79 73 66 56 48 46 47 42 37 31 25 18 12 6 3 7 10
7 7 9 27 34 28 15 27 25 3 23 16 13 2 22 7 41 57 72 81 79 77 76 77 78 81 83 80 73 64 56 51 48 45 42 34 28 19 11 5 5 8 12 12
7 5 4 8 25 18 8 26 23 17 16 11 7 10 23 26 31 51 76 81 81 79 76 76 78 80 77 72 68 68 60 51 44 39 32 24 18 13 9 9 10 15 19 18
8 4 4 8 16 4 13 27 23 32 24 5 12 27 32 43 59 65 73 89 82 80 80 83 85 79 72 65 63 59 52 47 42 36 29 21 16 13 12 14 17 22 26 27
14 1 7 2 4 16 27 16 20 40 14 21 27 42 53 80 91 58 68 84 80 86 82 85 78 72 66 61 57 56 50 45 41 32 24 19 17 17 18 22 23 21 22 24
15 10 5 9 6 9 8 34 58 33 11 27 33 42 54 77 35 18 58 83 85 87 85 84 75 68 62 54 50 50 45 41 40 30 27 23 20 20 24 25 23 24 25 24
8 5 4 5 7 9 14 46 47 9 14 38 47 32 55 40 35 66 69 78 84 79 77 74 67 64 57 49 47 49 42 39 32 28 24 25 24 24 22 20 21 20 24 24
7 11 6 4 6 8 6 20 8 28 60 62 62 75 83 85 73 77 72 75 74 73 69 63 63 56 48 43 40 42 40 32 29 27 28 25 25 24 22 20 20 21 21 21
7 12 7 11 5 14 43 45 65 75 82 70 74 68 100 84 77 75 73 74 70 70 67 61 59 53 45 38 33 40 39 36 34 30 33 31 27 28 27 26 24 21 21 21
19 25 8 11 21 36 58 69 73 78 73 75 80 70 81 85 73 74 70 69 67 63 62 59 55 51 46 37 34 36 39 33 30 34 32 30 32 31 31 27 27 25 27 30
8 22 19 10 20 47 48 69 81 81 86 88 82 84 80 79 68 68 66 63 64 62 56 53 52 49 45 37 32 31 34 34 38 36 30 30 32 33 34 33 29 31 32 37
21 12 8 8 23 41 31 57 83 83 81 93 100 94 76 62 64 64 66 65 61 61 56 55 54 50 40 43 45 38 31 35 40 40 33 31 31 32 31 32 35 40 39 40
Wind_Direction_850mb
238 248 227 223 234 246 241 249 235 240 212 224 241 224 205 206 233 240 215 217 214 220 235 239 233 228 247 208 211 209 188 167 198 201 201 182 191 186 194 206 211 220 231 234
283 253 239 242 257 251 248 245 253 238 242 213 231 234 215 190 216 230 231 205 211 214 221 233 236 234 238 213 208 197 183 189 202 199 201 198 195 192 198 199 210 221 226 237
209 258 233 233 239 250 242 236 246 248 253 237 217 227 229 213 210 213 222 203 208 211 214 226 237 229 228 200 186 185 186 195 185 187 197 200 198 199 206 210 212 228 229 231
213 224 245 231 229 234 237 251 246 255 249 249 218 228 222 219 205 207 211 212 209 206 213 225 230 215 200 183 190 195 193 195 196 195 197 199 199 206 210 208 214 209 198 213
253 289 306 268 243 218 242 240 247 244 251 252 262 235 222 203 196 207 200 205 208 209 215 220 228 223 201 186 187 183 193 207 209 197 203 196 201 203 193 197 192 188 209 227
288 264 245 268 301 272 241 229 245 249 239 246 247 243 223 187 195 182 204 213 213 208 209 215 218 213 190 188 198 195 196 216 210 203 190 198 190 194 188 182 187 195 216 223
286 243 241 250 283 268 249 255 216 215 230 222 234 243 249 207 184 188 205 200 201 198 210 211 207 183 174 177 179 175 184 192 196 196 193 188 196 197 193 188 189 197 207 221
240 1 194 190 213 210 257 229 185 173 186 219 215 206 227 202 195 201 203 197 188 189 198 191 187 177 164 162 160 176 184 177 178 178 172 185 179 168 170 169 186 194 212 221
319 355 313 292 235 192 266 246 241 164 187 217 172 244 219 263 165 337 219 181 176 176 186 170 177 178 168 156 163 176 164 158 160 162 170 159 160 175 167 168 180 186 203 207
317 300 215 280 71 161 199 273 239 235 184 184 195 215 224 210 87 34 13 168 165 171 171 180 172 159 153 157 162 157 155 158 163 171 172 167 175 184 177 175 178 192 193 187
339 298 285 311 200 181 164 234 240 184 152 205 183 213 208 251 119 85 47 85 125 131 120 126 125 130 147 152 155 148 149 150 161 171 170 174 180 182 177 184 178 181 196 211
91 272 270 243 293 243 127 275 196 217 218 234 80 252 337 240 120 103 81 92 98 107 111 113 120 128 141 139 138 139 148 152 158 161 168 169 171 174 168 163 153 156 176 215
316 326 306 307 119 193 210 202 211 195 338 205 149 320 347 92 107 105 110 103 106 107 106 107 110 116 123 131 135 138 143 146 146 148 154 156 150 141 134 134 135 133 117 12
149 230 248 262 289 302 298 232 183 182 117 220 273 56 12 87 118 111 105 106 106 106 108 107 108 110 114 121 128 129 128 134 134 138 138 135 130 128 126 119 117 111 50 346
91 247 238 263 261 249 247 273 226 214 186 157 222 214 153 149 133 120 112 108 105 106 106 110 111 111 111 113 118 120 119 123 127 126 124 116 111 110 115 122 113 359 342 331
187 269 288 277 243 247 240 249 183 296 164 136 227 210 136 171 136 112 110 108 105 107 109 109 107 111 113 115 116 115 111 108 112 110 107 113 119 120 111 70 360 331 331 328
207 258 285 277 164 181 246 179 175 122 105 97 25 186 142 123 104 112 111 107 108 107 104 101 103 109 114 113 113 109 111 114 114 114 115 113 110 107 80 46 19 5 2 8
199 213 242 274 139 106 343 139 123 114 104 179 136 144 116 100 94 94 107 108 106 103 101 104 109 110 111 114 113 117 120 119 117 113 113 108 99 82 59 46 49 48 34 35
175 354 286 283 11 140 40 89 110 118 100 139 110 106 110 99 86 75 98 101 103 102 107 110 111 112 113 112 117 119 119 118 114 109 105 97 91 88 76 67 59 44 37 52
151 227 285 345 41 77 218 115 119 111 77 115 115 126 123 112 94 96 100 102 102 105 111 113 113 114 114 117 123 119 116 117 114 111 98 90 86 79 69 62 58 51 51 65
334 350 51 339 82 93 247 162 182 85 145 129 109 91 104 97 110 116 103 100 110 114 115 117 120 115 117 125 127 120 119 109 115 124 104 88 77 73 67 56 54 54 58 69
341 328 31 322 68 151 204 219 304 126 121 113 109 113 104 109 110 105 104 103 109 114 117 120 120 120 123 128 127 120 112 116 112 112 111 95 74 69 64 56 67 61 67 69
18 3 310 14 359 45 67 91 116 123 119 119 114 116 113 109 106 106 108 110 111 116 118 121 120 122 124 125 119 114 108 105 103 101 87 78 70 66 66 65 67 67 70 71
342 8 13 350 13 88 84 88 96 106 111 114 114 114 110 112 111 112 112 110 111 111 113 115 114 111 109 110 110 109 112 111 112 100 87 73 65 60 57 63 65 64 62 60
326 314 318 2 24 76 82 105 111 111 117 109 105 110 108 110 113 115 115 114 112 113 114 112 107 101 96 95 100 106 107 106 102 100 89 69 56 62 57 53 53 62 60 59
339 340 358 9 9 84 90 112 121 116 115 123 125 115 110 113 114 112 109 115 117 114 112 110 107 102 91 82 77 79 89 107 109 100 86 63 52 58 62 65 66 67 72 74